date,time,SUV Intensity [MED/Hr],UV Index,Daily total [MED],Since Last [MED]
30/10/2023,00:02:58,0.000,0.0,0.0,0.0
30/10/2023,00:03:57,0.001,0.0,0.0,0.0
30/10/2023,00:04:57,0.000,0.0,0.0,0.0
30/10/2023,00:05:57,-0.001,0.0,0.0,0.0
30/10/2023,00:06:57,-0.000,0.0,0.0,0.0
30/10/2023,00:07:57,0.000,0.0,0.0,0.0
30/10/2023,00:08:57,0.000,0.0,0.0,0.0
30/10/2023,00:09:57,-0.001,0.0,0.0,0.0
30/10/2023,00:10:57,-0.000,0.0,0.0,0.0
30/10/2023,00:11:57,-0.001,0.0,0.0,0.0
30/10/2023,00:12:57,-0.001,0.0,0.0,0.0
30/10/2023,00:13:58,-0.001,0.0,0.0,0.0
30/10/2023,00:14:57,0.001,0.0,0.0,0.0
30/10/2023,00:15:57,0.000,0.0,0.0,0.0
30/10/2023,00:16:57,-0.000,0.0,0.0,0.0
30/10/2023,00:17:57,-0.001,0.0,0.0,0.0
30/10/2023,00:18:57,-0.000,0.0,0.0,0.0
30/10/2023,00:19:57,0.000,0.0,0.0,0.0
30/10/2023,00:20:57,-0.001,0.0,0.0,0.0
30/10/2023,00:21:57,-0.000,0.0,0.0,0.0
30/10/2023,00:22:57,0.000,0.0,0.0,0.0
30/10/2023,00:23:57,0.000,0.0,0.0,0.0
30/10/2023,00:24:57,0.000,0.0,0.0,0.0
30/10/2023,00:25:57,-0.001,0.0,0.0,0.0
30/10/2023,00:26:57,-0.000,0.0,0.0,0.0
30/10/2023,00:27:57,-0.000,0.0,0.0,0.0
30/10/2023,00:28:57,-0.000,0.0,0.0,0.0
30/10/2023,00:29:57,-0.000,0.0,0.0,0.0
30/10/2023,00:30:57,-0.000,0.0,0.0,0.0
30/10/2023,00:31:57,-0.001,0.0,0.0,0.0
30/10/2023,00:32:57,0.000,0.0,0.0,0.0
30/10/2023,00:33:57,-0.001,0.0,0.0,0.0
30/10/2023,00:34:57,-0.000,0.0,0.0,0.0
30/10/2023,00:35:57,-0.000,0.0,0.0,0.0
30/10/2023,00:36:57,-0.001,0.0,0.0,0.0
30/10/2023,00:37:58,0.001,0.0,0.0,0.0
30/10/2023,00:38:57,-0.000,0.0,0.0,0.0
30/10/2023,00:39:57,0.000,0.0,0.0,0.0
30/10/2023,00:40:57,0.001,0.0,0.0,0.0
30/10/2023,00:41:57,-0.000,0.0,0.0,0.0
30/10/2023,00:42:57,-0.000,0.0,0.0,0.0
30/10/2023,00:43:57,-0.001,0.0,0.0,0.0
30/10/2023,00:44:57,0.000,0.0,0.0,0.0
30/10/2023,00:45:57,-0.000,0.0,0.0,0.0
30/10/2023,00:46:57,-0.002,0.0,0.0,0.0
30/10/2023,00:47:57,-0.001,0.0,0.0,0.0
30/10/2023,00:48:57,-0.000,0.0,0.0,0.0
30/10/2023,00:49:57,-0.001,0.0,0.0,0.0
30/10/2023,00:50:57,-0.001,0.0,0.0,0.0
30/10/2023,00:51:57,0.001,0.0,0.0,0.0
30/10/2023,00:52:57,-0.001,0.0,0.0,0.0
30/10/2023,00:53:57,0.000,0.0,0.0,0.0
30/10/2023,00:54:57,-0.001,0.0,0.0,0.0
30/10/2023,00:55:57,-0.000,0.0,0.0,0.0
30/10/2023,00:56:57,-0.001,0.0,0.0,0.0
30/10/2023,00:57:57,-0.001,0.0,0.0,0.0
30/10/2023,00:58:57,0.000,0.0,0.0,0.0
30/10/2023,00:59:57,-0.001,0.0,0.0,0.0
30/10/2023,01:00:57,-0.001,0.0,0.0,0.0
30/10/2023,01:01:58,-0.000,0.0,0.0,0.0
30/10/2023,01:02:57,0.000,0.0,0.0,0.0
30/10/2023,01:03:57,-0.000,0.0,0.0,0.0
30/10/2023,01:04:57,-0.001,0.0,0.0,0.0
30/10/2023,01:05:57,0.000,0.0,0.0,0.0
30/10/2023,01:06:57,-0.001,0.0,0.0,0.0
30/10/2023,01:07:57,-0.001,0.0,0.0,0.0
30/10/2023,01:08:57,-0.000,0.0,0.0,0.0
30/10/2023,01:09:57,-0.001,0.0,0.0,0.0
30/10/2023,01:10:57,-0.000,0.0,0.0,0.0
30/10/2023,01:11:57,-0.000,0.0,0.0,0.0
30/10/2023,01:12:57,0.001,0.0,0.0,0.0
30/10/2023,01:13:57,-0.001,0.0,0.0,0.0
30/10/2023,01:14:57,0.000,0.0,0.0,0.0
30/10/2023,01:15:57,-0.000,0.0,0.0,0.0
30/10/2023,01:16:57,-0.001,0.0,0.0,0.0
30/10/2023,01:17:57,-0.001,0.0,0.0,0.0
30/10/2023,01:18:57,-0.000,0.0,0.0,0.0
30/10/2023,01:19:57,-0.001,0.0,0.0,0.0
30/10/2023,01:20:58,-0.001,0.0,0.0,0.0
30/10/2023,01:21:57,0.000,0.0,0.0,0.0
30/10/2023,01:22:57,-0.000,0.0,0.0,0.0
30/10/2023,01:23:57,0.001,0.0,0.0,0.0
30/10/2023,01:24:57,-0.000,0.0,0.0,0.0
30/10/2023,01:25:58,-0.000,0.0,0.0,0.0
30/10/2023,01:26:57,-0.001,0.0,0.0,0.0
30/10/2023,01:27:57,-0.000,0.0,0.0,0.0
30/10/2023,01:28:57,-0.000,0.0,0.0,0.0
30/10/2023,01:29:57,-0.000,0.0,0.0,0.0
30/10/2023,01:30:57,-0.000,0.0,0.0,0.0
30/10/2023,01:31:57,-0.001,0.0,0.0,0.0
30/10/2023,01:32:58,-0.000,0.0,0.0,0.0
30/10/2023,01:33:57,-0.000,0.0,0.0,0.0
30/10/2023,01:34:57,-0.001,0.0,0.0,0.0
30/10/2023,01:35:57,-0.000,0.0,0.0,0.0
30/10/2023,01:36:57,-0.000,0.0,0.0,0.0
30/10/2023,01:37:57,0.001,0.0,0.0,0.0
30/10/2023,01:38:57,-0.000,0.0,0.0,0.0
30/10/2023,01:39:57,-0.001,0.0,0.0,0.0
30/10/2023,01:40:57,-0.001,0.0,0.0,0.0
30/10/2023,01:41:58,0.001,0.0,0.0,0.0
30/10/2023,01:42:57,-0.001,0.0,0.0,0.0
30/10/2023,01:43:57,-0.000,0.0,0.0,0.0
30/10/2023,01:44:57,0.001,0.0,0.0,0.0
30/10/2023,01:45:57,0.000,0.0,0.0,0.0
30/10/2023,01:46:57,-0.001,0.0,0.0,0.0
30/10/2023,01:47:57,0.000,0.0,0.0,0.0
30/10/2023,01:48:58,-0.000,0.0,0.0,0.0
30/10/2023,01:49:57,-0.001,0.0,0.0,0.0
30/10/2023,01:50:57,0.000,0.0,0.0,0.0
30/10/2023,01:51:57,-0.001,0.0,0.0,0.0
30/10/2023,01:52:58,-0.000,0.0,0.0,0.0
30/10/2023,01:53:57,-0.000,0.0,0.0,0.0
30/10/2023,01:54:57,-0.000,0.0,0.0,0.0
30/10/2023,01:55:57,-0.001,0.0,0.0,0.0
30/10/2023,01:56:57,0.000,0.0,0.0,0.0
30/10/2023,01:57:55,-0.001,0.0,0.0,0.0
30/10/2023,01:58:57,-0.000,0.0,0.0,0.0
30/10/2023,01:59:57,-0.001,0.0,0.0,0.0
30/10/2023,02:00:59,-0.001,0.0,0.0,0.0
30/10/2023,02:01:58,-0.000,0.0,0.0,0.0
30/10/2023,02:02:57,-0.001,0.0,0.0,0.0
30/10/2023,02:03:57,-0.001,0.0,0.0,0.0
30/10/2023,02:04:57,0.000,0.0,0.0,0.0
30/10/2023,02:05:57,-0.001,0.0,0.0,0.0
30/10/2023,02:06:58,0.000,0.0,0.0,0.0
30/10/2023,02:07:57,-0.001,0.0,0.0,0.0
30/10/2023,02:08:58,-0.001,0.0,0.0,0.0
30/10/2023,02:09:57,-0.001,0.0,0.0,0.0
30/10/2023,02:10:57,-0.000,0.0,0.0,0.0
30/10/2023,02:11:57,-0.001,0.0,0.0,0.0
30/10/2023,02:12:57,-0.001,0.0,0.0,0.0
30/10/2023,02:13:57,-0.000,0.0,0.0,0.0
30/10/2023,02:14:57,-0.000,0.0,0.0,0.0
30/10/2023,02:15:57,-0.000,0.0,0.0,0.0
30/10/2023,02:16:57,0.000,0.0,0.0,0.0
30/10/2023,02:17:57,0.000,0.0,0.0,0.0
30/10/2023,02:18:57,0.001,0.0,0.0,0.0
30/10/2023,02:19:57,-0.000,0.0,0.0,0.0
30/10/2023,02:20:57,0.001,0.0,0.0,0.0
30/10/2023,02:21:57,0.001,0.0,0.0,0.0
30/10/2023,02:22:57,-0.001,0.0,0.0,0.0
30/10/2023,02:23:57,-0.000,0.0,0.0,0.0
30/10/2023,02:24:57,-0.000,0.0,0.0,0.0
30/10/2023,02:25:57,-0.001,0.0,0.0,0.0
30/10/2023,02:26:57,-0.000,0.0,0.0,0.0
30/10/2023,02:27:57,0.001,0.0,0.0,0.0
30/10/2023,02:28:58,-0.001,0.0,0.0,0.0
30/10/2023,02:29:57,-0.001,0.0,0.0,0.0
30/10/2023,02:31:01,-0.000,0.0,0.0,0.0
30/10/2023,02:32:03,-0.001,0.0,0.0,0.0
30/10/2023,02:32:59,0.001,0.0,0.0,0.0
30/10/2023,02:33:57,-0.000,0.0,0.0,0.0
30/10/2023,02:34:57,-0.001,0.0,0.0,0.0
30/10/2023,02:35:57,-0.000,0.0,0.0,0.0
30/10/2023,02:36:57,0.001,0.0,0.0,0.0
30/10/2023,02:37:57,-0.001,0.0,0.0,0.0
30/10/2023,02:38:57,-0.000,0.0,0.0,0.0
30/10/2023,02:39:58,-0.001,0.0,0.0,0.0
30/10/2023,02:40:57,0.000,0.0,0.0,0.0
30/10/2023,02:41:58,-0.001,0.0,0.0,0.0
30/10/2023,02:42:57,0.000,0.0,0.0,0.0
30/10/2023,02:43:58,-0.000,0.0,0.0,0.0
30/10/2023,02:44:57,-0.000,0.0,0.0,0.0
30/10/2023,02:45:57,0.001,0.0,0.0,0.0
30/10/2023,02:46:57,-0.000,0.0,0.0,0.0
30/10/2023,02:47:57,-0.000,0.0,0.0,0.0
30/10/2023,02:48:57,-0.000,0.0,0.0,0.0
30/10/2023,02:49:57,-0.000,0.0,0.0,0.0
30/10/2023,02:50:57,0.000,0.0,0.0,0.0
30/10/2023,02:51:57,-0.000,0.0,0.0,0.0
30/10/2023,02:52:57,-0.000,0.0,0.0,0.0
30/10/2023,02:53:57,0.000,0.0,0.0,0.0
30/10/2023,02:54:57,0.001,0.0,0.0,0.0
30/10/2023,02:55:57,0.001,0.0,0.0,0.0
30/10/2023,02:56:57,0.000,0.0,0.0,0.0
30/10/2023,02:57:58,-0.000,0.0,0.0,0.0
30/10/2023,02:58:57,-0.000,0.0,0.0,0.0
30/10/2023,02:59:57,0.001,0.0,0.0,0.0
30/10/2023,03:00:56,0.000,0.0,0.0,0.0
30/10/2023,03:02:19,0.000,0.0,0.0,0.0
30/10/2023,03:02:57,-0.000,0.0,0.0,0.0
30/10/2023,03:03:57,-0.000,0.0,0.0,0.0
30/10/2023,03:04:58,-0.001,0.0,0.0,0.0
30/10/2023,03:05:57,-0.000,0.0,0.0,0.0
30/10/2023,03:06:58,0.000,0.0,0.0,0.0
30/10/2023,03:07:57,0.000,0.0,0.0,0.0
30/10/2023,03:08:58,-0.001,0.0,0.0,0.0
30/10/2023,03:09:58,-0.000,0.0,0.0,0.0
30/10/2023,03:10:58,0.000,0.0,0.0,0.0
30/10/2023,03:11:58,-0.000,0.0,0.0,0.0
30/10/2023,03:12:57,-0.000,0.0,0.0,0.0
30/10/2023,03:13:57,0.000,0.0,0.0,0.0
30/10/2023,03:14:57,-0.000,0.0,0.0,0.0
30/10/2023,03:15:57,0.000,0.0,0.0,0.0
30/10/2023,03:16:57,-0.000,0.0,0.0,0.0
30/10/2023,03:17:57,0.000,0.0,0.0,0.0
30/10/2023,03:18:57,0.001,0.0,0.0,0.0
30/10/2023,03:19:57,-0.000,0.0,0.0,0.0
30/10/2023,03:20:57,-0.001,0.0,0.0,0.0
30/10/2023,03:21:57,-0.000,0.0,0.0,0.0
30/10/2023,03:22:57,-0.000,0.0,0.0,0.0
30/10/2023,03:23:59,0.000,0.0,0.0,0.0
30/10/2023,03:24:57,0.001,0.0,0.0,0.0
30/10/2023,03:25:58,-0.000,0.0,0.0,0.0
30/10/2023,03:26:57,-0.000,0.0,0.0,0.0
30/10/2023,03:27:57,0.000,0.0,0.0,0.0
30/10/2023,03:28:58,0.000,0.0,0.0,0.0
30/10/2023,03:29:57,0.000,0.0,0.0,0.0
30/10/2023,03:30:57,-0.000,0.0,0.0,0.0
30/10/2023,03:31:57,0.000,0.0,0.0,0.0
30/10/2023,03:32:57,0.000,0.0,0.0,0.0
30/10/2023,03:33:57,0.001,0.0,0.0,0.0
30/10/2023,03:34:57,-0.000,0.0,0.0,0.0
30/10/2023,03:35:57,-0.000,0.0,0.0,0.0
30/10/2023,03:36:57,-0.000,0.0,0.0,0.0
30/10/2023,03:37:57,0.001,0.0,0.0,0.0
30/10/2023,03:38:57,0.000,0.0,0.0,0.0
30/10/2023,03:39:57,0.000,0.0,0.0,0.0
30/10/2023,03:40:57,-0.000,0.0,0.0,0.0
30/10/2023,03:41:57,0.000,0.0,0.0,0.0
30/10/2023,03:42:58,0.001,0.0,0.0,0.0
30/10/2023,03:43:57,0.000,0.0,0.0,0.0
30/10/2023,03:44:57,0.000,0.0,0.0,0.0
30/10/2023,03:45:57,0.001,0.0,0.0,0.0
30/10/2023,03:46:57,-0.000,0.0,0.0,0.0
30/10/2023,03:47:58,0.000,0.0,0.0,0.0
30/10/2023,03:48:57,0.000,0.0,0.0,0.0
30/10/2023,03:49:57,0.000,0.0,0.0,0.0
30/10/2023,03:50:58,0.001,0.0,0.0,0.0
30/10/2023,03:51:58,-0.000,0.0,0.0,0.0
30/10/2023,03:52:58,-0.001,0.0,0.0,0.0
30/10/2023,03:53:58,-0.000,0.0,0.0,0.0
30/10/2023,03:54:57,-0.000,0.0,0.0,0.0
30/10/2023,03:55:57,0.000,0.0,0.0,0.0
30/10/2023,03:56:58,0.001,0.0,0.0,0.0
30/10/2023,03:57:58,0.001,0.0,0.0,0.0
30/10/2023,03:58:57,0.000,0.0,0.0,0.0
30/10/2023,03:59:58,-0.001,0.0,0.0,0.0
30/10/2023,04:00:57,0.000,0.0,0.0,0.0
30/10/2023,04:01:58,0.001,0.0,0.0,0.0
30/10/2023,04:02:57,0.001,0.0,0.0,0.0
30/10/2023,04:03:58,0.000,0.0,0.0,0.0
30/10/2023,04:04:57,0.000,0.0,0.0,0.0
30/10/2023,04:05:57,-0.000,0.0,0.0,0.0
30/10/2023,04:06:58,0.000,0.0,0.0,0.0
30/10/2023,04:07:58,0.000,0.0,0.0,0.0
30/10/2023,04:08:57,0.000,0.0,0.0,0.0
30/10/2023,04:09:57,0.000,0.0,0.0,0.0
30/10/2023,04:10:57,0.000,0.0,0.0,0.0
30/10/2023,04:11:57,0.000,0.0,0.0,0.0
30/10/2023,04:12:57,0.000,0.0,0.0,0.0
30/10/2023,04:13:58,0.000,0.0,0.0,0.0
30/10/2023,04:14:57,0.001,0.0,0.0,0.0
30/10/2023,04:15:57,0.000,0.0,0.0,0.0
30/10/2023,04:16:57,-0.001,0.0,0.0,0.0
30/10/2023,04:17:57,-0.000,0.0,0.0,0.0
30/10/2023,04:18:58,0.001,0.0,0.0,0.0
30/10/2023,04:19:57,0.000,0.0,0.0,0.0
30/10/2023,04:20:57,-0.001,0.0,0.0,0.0
30/10/2023,04:21:57,-0.000,0.0,0.0,0.0
30/10/2023,04:22:58,0.000,0.0,0.0,0.0
30/10/2023,04:23:57,0.000,0.0,0.0,0.0
30/10/2023,04:24:57,0.000,0.0,0.0,0.0
30/10/2023,04:25:57,0.000,0.0,0.0,0.0
30/10/2023,04:26:57,0.001,0.0,0.0,0.0
30/10/2023,04:27:57,0.000,0.0,0.0,0.0
30/10/2023,04:28:57,0.001,0.0,0.0,0.0
30/10/2023,04:29:58,0.000,0.0,0.0,0.0
30/10/2023,04:30:57,0.000,0.0,0.0,0.0
30/10/2023,04:31:57,0.000,0.0,0.0,0.0
30/10/2023,04:32:57,0.000,0.0,0.0,0.0
30/10/2023,04:33:57,-0.000,0.0,0.0,0.0
30/10/2023,04:34:57,0.001,0.0,0.0,0.0
30/10/2023,04:35:57,0.000,0.0,0.0,0.0
30/10/2023,04:36:57,0.001,0.0,0.0,0.0
30/10/2023,04:37:57,-0.000,0.0,0.0,0.0
30/10/2023,04:38:58,-0.001,0.0,0.0,0.0
30/10/2023,04:39:57,-0.001,0.0,0.0,0.0
30/10/2023,04:40:58,0.000,0.0,0.0,0.0
30/10/2023,04:41:57,0.000,0.0,0.0,0.0
30/10/2023,04:42:57,0.000,0.0,0.0,0.0
30/10/2023,04:43:58,0.000,0.0,0.0,0.0
30/10/2023,04:44:57,0.000,0.0,0.0,0.0
30/10/2023,04:45:57,0.000,0.0,0.0,0.0
30/10/2023,04:46:57,0.001,0.0,0.0,0.0
30/10/2023,04:47:58,-0.001,0.0,0.0,0.0
30/10/2023,04:48:57,0.000,0.0,0.0,0.0
30/10/2023,04:49:58,0.001,0.0,0.0,0.0
30/10/2023,04:50:57,0.000,0.0,0.0,0.0
30/10/2023,04:51:57,0.000,0.0,0.0,0.0
30/10/2023,04:52:57,0.000,0.0,0.0,0.0
30/10/2023,04:53:57,0.001,0.0,0.0,0.0
30/10/2023,04:54:57,-0.001,0.0,0.0,0.0
30/10/2023,04:55:57,0.000,0.0,0.0,0.0
30/10/2023,04:56:57,0.000,0.0,0.0,0.0
30/10/2023,04:57:57,0.000,0.0,0.0,0.0
30/10/2023,04:58:57,0.000,0.0,0.0,0.0
30/10/2023,04:59:57,0.000,0.0,0.0,0.0
30/10/2023,05:00:58,0.000,0.0,0.0,0.0
30/10/2023,05:01:57,0.000,0.0,0.0,0.0
30/10/2023,05:02:58,-0.000,0.0,0.0,0.0
30/10/2023,05:03:58,0.000,0.0,0.0,0.0
30/10/2023,05:04:57,0.000,0.0,0.0,0.0
30/10/2023,05:05:57,-0.001,0.0,0.0,0.0
30/10/2023,05:06:58,0.000,0.0,0.0,0.0
30/10/2023,05:07:58,0.000,0.0,0.0,0.0
30/10/2023,05:08:58,0.001,0.0,0.0,0.0
30/10/2023,05:09:58,0.000,0.0,0.0,0.0
30/10/2023,05:10:58,-0.000,0.0,0.0,0.0
30/10/2023,05:11:58,0.000,0.0,0.0,0.0
30/10/2023,05:12:58,0.001,0.0,0.0,0.0
30/10/2023,05:13:58,0.000,0.0,0.0,0.0
30/10/2023,05:14:58,-0.001,0.0,0.0,0.0
30/10/2023,05:15:58,0.000,0.0,0.0,0.0
30/10/2023,05:16:58,0.000,0.0,0.0,0.0
30/10/2023,05:17:58,0.001,0.0,0.0,0.0
30/10/2023,05:18:58,0.000,0.0,0.0,0.0
30/10/2023,05:19:58,0.000,0.0,0.0,0.0
30/10/2023,05:20:57,0.001,0.0,0.0,0.0
30/10/2023,05:21:58,0.000,0.0,0.0,0.0
30/10/2023,05:22:58,0.000,0.0,0.0,0.0
30/10/2023,05:23:57,0.000,0.0,0.0,0.0
30/10/2023,05:24:58,0.000,0.0,0.0,0.0
30/10/2023,05:25:57,0.000,0.0,0.0,0.0
30/10/2023,05:26:57,0.000,0.0,0.0,0.0
30/10/2023,05:27:58,0.000,0.0,0.0,0.0
30/10/2023,05:28:57,0.000,0.0,0.0,0.0
30/10/2023,05:29:57,0.001,0.0,0.0,0.0
30/10/2023,05:30:58,0.000,0.0,0.0,0.0
30/10/2023,05:31:58,-0.000,0.0,0.0,0.0
30/10/2023,05:32:58,0.000,0.0,0.0,0.0
30/10/2023,05:33:58,-0.001,0.0,0.0,0.0
30/10/2023,05:34:58,0.000,0.0,0.0,0.0
30/10/2023,05:35:58,0.000,0.0,0.0,0.0
30/10/2023,05:36:58,-0.000,0.0,0.0,0.0
30/10/2023,05:37:57,0.000,0.0,0.0,0.0
30/10/2023,05:38:58,0.001,0.0,0.0,0.0
30/10/2023,05:39:57,0.001,0.0,0.0,0.0
30/10/2023,05:40:58,0.001,0.0,0.0,0.0
30/10/2023,05:41:58,0.000,0.0,0.0,0.0
30/10/2023,05:42:57,0.000,0.0,0.0,0.0
30/10/2023,05:43:58,0.000,0.0,0.0,0.0
30/10/2023,05:44:57,-0.001,0.0,0.0,0.0
30/10/2023,05:45:57,0.000,0.0,0.0,0.0
30/10/2023,05:46:58,-0.001,0.0,0.0,0.0
30/10/2023,05:47:58,0.000,0.0,0.0,0.0
30/10/2023,05:48:58,0.001,0.0,0.0,0.0
30/10/2023,05:49:58,0.000,0.0,0.0,0.0
30/10/2023,05:50:58,-0.000,0.0,0.0,0.0
30/10/2023,05:51:57,-0.001,0.0,0.0,0.0
30/10/2023,05:52:57,0.001,0.0,0.0,0.0
30/10/2023,05:53:58,0.001,0.0,0.0,0.0
30/10/2023,05:54:57,-0.000,0.0,0.0,0.0
30/10/2023,05:55:58,-0.000,0.0,0.0,0.0
30/10/2023,05:56:57,-0.001,0.0,0.0,0.0
30/10/2023,05:57:57,-0.001,0.0,0.0,0.0
30/10/2023,05:58:58,0.000,0.0,0.0,0.0
30/10/2023,05:59:58,0.000,0.0,0.0,0.0
30/10/2023,06:00:57,0.001,0.0,0.0,0.0
30/10/2023,06:01:58,0.000,0.0,0.0,0.0
30/10/2023,06:02:57,0.000,0.0,0.0,0.0
30/10/2023,06:03:57,-0.001,0.0,0.0,0.0
30/10/2023,06:04:57,-0.001,0.0,0.0,0.0
30/10/2023,06:05:57,-0.001,0.0,0.0,0.0
30/10/2023,06:06:57,-0.000,0.0,0.0,0.0
30/10/2023,06:07:58,-0.000,0.0,0.0,0.0
30/10/2023,06:08:57,-0.001,0.0,0.0,0.0
30/10/2023,06:09:58,-0.000,0.0,0.0,0.0
30/10/2023,06:10:58,0.000,0.0,0.0,0.0
30/10/2023,06:11:57,-0.000,0.0,0.0,0.0
30/10/2023,06:12:57,0.000,0.0,0.0,0.0
30/10/2023,06:13:58,-0.000,0.0,0.0,0.0
30/10/2023,06:14:58,-0.001,0.0,0.0,0.0
30/10/2023,06:15:57,-0.000,0.0,0.0,0.0
30/10/2023,06:16:58,-0.000,0.0,0.0,0.0
30/10/2023,06:17:58,-0.000,0.0,0.0,0.0
30/10/2023,06:18:58,-0.000,0.0,0.0,0.0
30/10/2023,06:19:58,0.000,0.0,0.0,0.0
30/10/2023,06:20:58,-0.001,0.0,0.0,0.0
30/10/2023,06:21:57,-0.000,0.0,0.0,0.0
30/10/2023,06:22:58,0.000,0.0,0.0,0.0
30/10/2023,06:23:58,0.000,0.0,0.0,0.0
30/10/2023,06:24:57,-0.000,0.0,0.0,0.0
30/10/2023,06:25:58,-0.000,0.0,0.0,0.0
30/10/2023,06:26:58,-0.000,0.0,0.0,0.0
30/10/2023,06:27:58,-0.001,0.0,0.0,0.0
30/10/2023,06:28:57,-0.000,0.0,0.0,0.0
30/10/2023,06:29:58,-0.000,0.0,0.0,0.0
30/10/2023,06:30:57,0.000,0.0,0.0,0.0
30/10/2023,06:32:26,-0.001,0.0,0.0,0.0
30/10/2023,06:33:58,0.000,0.0,0.0,0.0
30/10/2023,06:34:57,0.000,0.0,0.0,0.0
30/10/2023,06:35:58,-0.000,0.0,0.0,0.0
30/10/2023,06:36:57,-0.001,0.0,0.0,0.0
30/10/2023,06:37:57,0.000,0.0,0.0,0.0
30/10/2023,06:38:58,0.001,0.0,0.0,0.0
30/10/2023,06:39:58,-0.001,0.0,0.0,0.0
30/10/2023,06:40:57,0.000,0.0,0.0,0.0
30/10/2023,06:41:58,0.001,0.0,0.0,0.0
30/10/2023,06:42:58,0.000,0.0,0.0,0.0
30/10/2023,06:43:58,0.000,0.0,0.0,0.0
30/10/2023,06:44:58,0.001,0.0,0.0,0.0
30/10/2023,06:45:58,0.000,0.0,0.0,0.0
30/10/2023,06:46:58,0.001,0.0,0.0,0.0
30/10/2023,06:47:58,0.001,0.0,0.0,0.0
30/10/2023,06:48:58,0.001,0.0,0.0,0.0
30/10/2023,06:49:58,0.001,0.0,0.0,0.0
30/10/2023,06:50:58,0.001,0.0,0.0,0.0
30/10/2023,06:51:58,0.001,0.0,0.0,0.0
30/10/2023,06:52:58,0.001,0.0,0.0,0.0
30/10/2023,06:53:57,0.001,0.0,0.0,0.0
30/10/2023,06:54:58,0.002,0.0,0.0,0.0
30/10/2023,06:55:58,0.002,0.0,0.0,0.0
30/10/2023,06:56:58,0.002,0.0,0.0,0.0
30/10/2023,06:57:58,0.002,0.0,0.0,0.0
30/10/2023,06:58:58,0.002,0.0,0.0,0.0
30/10/2023,06:59:58,0.002,0.0,0.0,0.0
30/10/2023,07:00:58,0.002,0.0,0.0,0.0
30/10/2023,07:01:57,0.003,0.0,0.0,0.0
30/10/2023,07:02:58,0.003,0.0,0.0,0.0
30/10/2023,07:03:58,0.004,0.0,0.0,0.0
30/10/2023,07:04:58,0.004,0.0,0.0,0.0
30/10/2023,07:05:58,0.004,0.0,0.0,0.0
30/10/2023,07:06:58,0.004,0.0,0.0,0.0
30/10/2023,07:07:57,0.005,0.0,0.0,0.0
30/10/2023,07:08:58,0.004,0.0,0.0,0.0
30/10/2023,07:09:58,0.005,0.0,0.0,0.0
30/10/2023,07:10:58,0.005,0.0,0.0,0.0
30/10/2023,07:11:57,0.004,0.0,0.0,0.0
30/10/2023,07:12:58,0.005,0.0,0.0,0.0
30/10/2023,07:13:58,0.006,0.0,0.0,0.0
30/10/2023,07:14:58,0.006,0.0,0.0,0.0
30/10/2023,07:15:57,0.006,0.0,0.0,0.0
30/10/2023,07:16:57,0.007,0.0,0.0,0.0
30/10/2023,07:17:58,0.007,0.0,0.0,0.0
30/10/2023,07:18:57,0.007,0.0,0.001,0.001
30/10/2023,07:19:57,0.008,0.0,0.001,0.0
30/10/2023,07:20:58,0.008,0.0,0.001,0.0
30/10/2023,07:21:58,0.009,0.0,0.001,0.0
30/10/2023,07:22:57,0.009,0.0,0.001,0.0
30/10/2023,07:23:58,0.009,0.0,0.001,0.0
30/10/2023,07:24:58,0.010,0.0,0.001,0.0
30/10/2023,07:25:58,0.010,0.0,0.002,0.001
30/10/2023,07:26:58,0.011,0.0,0.002,0.0
30/10/2023,07:27:58,0.011,0.0,0.002,0.0
30/10/2023,07:28:58,0.011,0.0,0.002,0.0
30/10/2023,07:29:58,0.011,0.0,0.002,0.0
30/10/2023,07:30:58,0.012,0.0,0.002,0.0
30/10/2023,07:31:58,0.014,0.0,0.003,0.001
30/10/2023,07:32:57,0.014,0.0,0.003,0.0
30/10/2023,07:33:58,0.014,0.0,0.003,0.0
30/10/2023,07:34:57,0.015,0.0,0.003,0.0
30/10/2023,07:35:57,0.015,0.0,0.004,0.001
30/10/2023,07:36:57,0.016,0.0,0.004,0.0
30/10/2023,07:37:58,0.016,0.0,0.004,0.0
30/10/2023,07:38:57,0.017,0.0,0.004,0.0
30/10/2023,07:39:58,0.018,0.0,0.005,0.001
30/10/2023,07:40:57,0.018,0.0,0.005,0.0
30/10/2023,07:41:58,0.019,0.0,0.005,0.0
30/10/2023,07:42:57,0.019,0.0,0.006,0.001
30/10/2023,07:43:57,0.020,0.0,0.006,0.0
30/10/2023,07:44:58,0.020,0.0,0.006,0.0
30/10/2023,07:45:58,0.022,0.0,0.007,0.001
30/10/2023,07:46:58,0.022,0.0,0.007,0.0
30/10/2023,07:47:58,0.022,0.0,0.007,0.0
30/10/2023,07:48:58,0.023,0.0,0.008,0.001
30/10/2023,07:49:58,0.023,0.0,0.008,0.0
30/10/2023,07:50:58,0.023,0.0,0.009,0.001
30/10/2023,07:51:58,0.025,0.0,0.009,0.0
30/10/2023,07:52:58,0.026,0.0,0.009,0.0
30/10/2023,07:53:58,0.026,0.0,0.01,0.001
30/10/2023,07:54:58,0.027,0.0,0.01,0.0
30/10/2023,07:55:57,0.027,0.0,0.011,0.001
30/10/2023,07:56:58,0.030,0.0,0.011,0.0
30/10/2023,07:57:57,0.031,0.0,0.012,0.001
30/10/2023,07:58:58,0.030,0.0,0.012,0.0
30/10/2023,07:59:58,0.031,0.0,0.013,0.001
30/10/2023,08:00:58,0.032,0.0,0.013,0.0
30/10/2023,08:01:58,0.033,0.0,0.014,0.001
30/10/2023,08:02:58,0.033,0.0,0.014,0.0
30/10/2023,08:03:58,0.033,0.0,0.015,0.001
30/10/2023,08:04:58,0.035,0.0,0.015,0.0
30/10/2023,08:05:58,0.035,0.0,0.016,0.001
30/10/2023,08:06:58,0.037,0.0,0.017,0.001
30/10/2023,08:07:58,0.038,0.0,0.017,0.0
30/10/2023,08:08:58,0.039,0.0,0.018,0.001
30/10/2023,08:09:58,0.038,0.0,0.019,0.001
30/10/2023,08:10:58,0.040,0.0,0.019,0.0
30/10/2023,08:11:58,0.042,0.0,0.02,0.001
30/10/2023,08:12:58,0.041,0.0,0.021,0.001
30/10/2023,08:13:58,0.042,0.0,0.021,0.0
30/10/2023,08:14:57,0.044,0.0,0.022,0.001
30/10/2023,08:15:58,0.044,0.0,0.023,0.001
30/10/2023,08:16:57,0.046,0.0,0.023,0.0
30/10/2023,08:17:57,0.047,0.0,0.024,0.001
30/10/2023,08:18:58,0.047,0.0,0.025,0.001
30/10/2023,08:19:57,0.048,0.0,0.026,0.001
30/10/2023,08:20:58,0.049,0.0,0.027,0.001
30/10/2023,08:21:57,0.050,0.0,0.027,0.0
30/10/2023,08:22:58,0.051,0.0,0.028,0.001
30/10/2023,08:23:57,0.052,0.0,0.029,0.001
30/10/2023,08:24:57,0.052,0.0,0.03,0.001
30/10/2023,08:25:58,0.054,0.0,0.031,0.001
30/10/2023,08:26:58,0.055,0.0,0.032,0.001
30/10/2023,08:27:58,0.056,0.0,0.033,0.001
30/10/2023,08:28:58,0.057,0.0,0.034,0.001
30/10/2023,08:29:58,0.057,0.0,0.035,0.001
30/10/2023,08:30:58,0.058,0.0,0.036,0.001
30/10/2023,08:31:58,0.059,0.0,0.037,0.001
30/10/2023,08:32:58,0.060,0.0,0.038,0.001
30/10/2023,08:33:57,0.061,0.0,0.039,0.001
30/10/2023,08:34:58,0.061,0.0,0.04,0.001
30/10/2023,08:35:58,0.063,0.0,0.041,0.001
30/10/2023,08:36:58,0.062,0.0,0.042,0.001
30/10/2023,08:37:58,0.064,0.0,0.043,0.001
30/10/2023,08:38:58,0.065,0.0,0.044,0.001
30/10/2023,08:39:58,0.066,0.0,0.045,0.001
30/10/2023,08:40:58,0.066,0.0,0.046,0.001
30/10/2023,08:41:57,0.068,0.0,0.047,0.001
30/10/2023,08:42:58,0.069,0.0,0.048,0.001
30/10/2023,08:43:57,0.070,0.0,0.049,0.001
30/10/2023,08:44:58,0.072,0.0,0.051,0.002
30/10/2023,08:45:58,0.073,0.0,0.052,0.001
30/10/2023,08:46:58,0.075,0.0,0.053,0.001
30/10/2023,08:47:58,0.076,0.0,0.054,0.001
30/10/2023,08:48:58,0.077,0.0,0.056,0.002
30/10/2023,08:49:58,0.078,0.0,0.057,0.001
30/10/2023,08:50:59,0.079,0.0,0.058,0.001
30/10/2023,08:51:57,0.080,0.0,0.06,0.002
30/10/2023,08:52:58,0.082,0.0,0.061,0.001
30/10/2023,08:53:58,0.083,0.0,0.062,0.001
30/10/2023,08:54:58,0.085,0.0,0.064,0.002
30/10/2023,08:55:57,0.085,0.0,0.065,0.001
30/10/2023,08:56:58,0.086,0.0,0.066,0.001
30/10/2023,08:57:57,0.087,0.0,0.068,0.002
30/10/2023,08:58:58,0.089,0.0,0.069,0.001
30/10/2023,08:59:58,0.091,0.0,0.071,0.002
30/10/2023,09:00:58,0.092,0.0,0.072,0.001
30/10/2023,09:01:58,0.094,0.0,0.074,0.002
30/10/2023,09:02:58,0.096,0.0,0.076,0.002
30/10/2023,09:03:58,0.098,0.0,0.077,0.001
30/10/2023,09:04:57,0.102,0.0,0.079,0.002
30/10/2023,09:05:58,0.104,0.0,0.081,0.002
30/10/2023,09:06:58,0.105,0.0,0.082,0.001
30/10/2023,09:07:58,0.107,0.0,0.084,0.002
30/10/2023,09:08:58,0.108,0.0,0.086,0.002
30/10/2023,09:09:58,0.109,0.0,0.088,0.002
30/10/2023,09:10:58,0.109,0.0,0.089,0.001
30/10/2023,09:11:58,0.111,0.0,0.091,0.002
30/10/2023,09:12:58,0.112,0.0,0.093,0.002
30/10/2023,09:13:58,0.112,0.0,0.095,0.002
30/10/2023,09:14:58,0.115,0.0,0.097,0.002
30/10/2023,09:15:58,0.115,0.0,0.099,0.002
30/10/2023,09:16:58,0.116,0.0,0.101,0.002
30/10/2023,09:17:58,0.117,0.0,0.103,0.002
30/10/2023,09:18:58,0.119,0.0,0.105,0.002
30/10/2023,09:19:58,0.118,0.0,0.107,0.002
30/10/2023,09:20:58,0.118,0.0,0.109,0.002
30/10/2023,09:21:58,0.118,0.0,0.111,0.002
30/10/2023,09:22:58,0.119,0.0,0.113,0.002
30/10/2023,09:23:58,0.122,0.0,0.115,0.002
30/10/2023,09:24:58,0.124,0.0,0.117,0.002
30/10/2023,09:25:58,0.125,0.0,0.119,0.002
30/10/2023,09:26:58,0.129,0.0,0.121,0.002
30/10/2023,09:27:58,0.137,0.0,0.123,0.002
30/10/2023,09:28:58,0.140,0.0,0.125,0.002
30/10/2023,09:29:58,0.143,0.0,0.128,0.003
30/10/2023,09:30:58,0.144,0.0,0.13,0.002
30/10/2023,09:31:58,0.147,0.0,0.133,0.003
30/10/2023,09:32:58,0.149,0.0,0.135,0.002
30/10/2023,09:33:58,0.152,0.0,0.137,0.002
30/10/2023,09:34:58,0.152,0.0,0.14,0.003
30/10/2023,09:35:58,0.154,0.0,0.143,0.003
30/10/2023,09:36:57,0.158,0.0,0.145,0.002
30/10/2023,09:37:58,0.162,0.0,0.148,0.003
30/10/2023,09:38:57,0.166,0.0,0.151,0.003
30/10/2023,09:39:57,0.167,0.0,0.153,0.002
30/10/2023,09:40:58,0.168,0.0,0.156,0.003
30/10/2023,09:41:58,0.173,0.0,0.159,0.003
30/10/2023,09:42:58,0.176,0.0,0.162,0.003
30/10/2023,09:43:58,0.177,0.0,0.165,0.003
30/10/2023,09:44:58,0.177,0.0,0.168,0.003
30/10/2023,09:45:58,0.180,0.0,0.171,0.003
30/10/2023,09:46:58,0.182,0.0,0.174,0.003
30/10/2023,09:47:58,0.184,0.0,0.177,0.003
30/10/2023,09:48:58,0.183,0.0,0.18,0.003
30/10/2023,09:49:58,0.186,0.0,0.183,0.003
30/10/2023,09:50:58,0.189,0.0,0.186,0.003
30/10/2023,09:51:58,0.191,0.0,0.189,0.003
30/10/2023,09:52:58,0.191,0.0,0.192,0.003
30/10/2023,09:53:57,0.193,0.0,0.196,0.004
30/10/2023,09:54:58,0.196,0.0,0.199,0.003
30/10/2023,09:55:58,0.197,0.0,0.202,0.003
30/10/2023,09:56:58,0.199,0.0,0.205,0.003
30/10/2023,09:57:58,0.194,0.0,0.209,0.004
30/10/2023,09:58:58,0.188,0.0,0.212,0.003
30/10/2023,09:59:58,0.182,0.0,0.215,0.003
30/10/2023,10:00:58,0.204,0.0,0.218,0.003
30/10/2023,10:01:58,0.194,0.0,0.222,0.004
30/10/2023,10:02:58,0.182,0.0,0.225,0.003
30/10/2023,10:03:58,0.184,0.0,0.228,0.003
30/10/2023,10:04:58,0.195,0.0,0.231,0.003
30/10/2023,10:05:58,0.207,0.0,0.235,0.004
30/10/2023,10:06:58,0.197,0.0,0.238,0.003
30/10/2023,10:07:58,0.212,0.0,0.241,0.003
30/10/2023,10:08:58,0.213,0.0,0.245,0.004
30/10/2023,10:09:58,0.212,0.0,0.248,0.003
30/10/2023,10:10:58,0.213,0.0,0.252,0.004